This demonstration page uses our WeatherBlox Daily Observations layout. Learn more.

Left ArrowRight Arrow

39.29038, -76.61219

Hourly Observations for May 7, 2021

Temp ( °F °C ) Dew Point ( °F °C ) Humidity (%) Winds ( mph kmh ) Pressure ( in mb ) Visibility ( mi km ) Precip ( " mm )
12:54 am 00:54 Mostly Cloudy 48 8.9 42 5.6 80 80 W 3 6 29.94 1014 10 16 N/A
1:54 am 01:54 Mostly Clear 48 8.9 43 6.1 83 83 N N/A 29.93 1014 10 16 N/A
2:54 am 02:54 Mostly Clear 47 8.3 43 6.1 86 86 N N/A 29.92 1013 10 16 N/A
3:54 am 03:54 Mostly Clear 44 6.7 41 5 89 89 W 3 6 29.91 1013 10 16 N/A
4:54 am 04:54 Mostly Clear 45 7.2 40 4.4 83 83 N N/A 29.90 1013 10 16 N/A
5:54 am 05:54 Partly Cloudy 43 6.1 40 4.4 89 89 WNW 3 6 29.90 1013 10 16 N/A
6:54 am 06:54 Mostly Cloudy 48 8.9 43 6.1 83 83 N N/A 29.90 1013 10 16 N/A
7:54 am 07:54 Mostly Cloudy 53 11.7 44 6.7 72 72 E 5 7 29.90 1013 10 16 N/A
8:54 am 08:54 Mostly Cloudy 58 14.4 37 2.8 46 46 E 12 19 29.90 1012 10 16 N/A
9:54 am 09:54 Mostly Cloudy 62 16.7 38 3.3 41 41 VRB 7 11 29.88 1012 10 16 N/A
10:54 am 10:54 Mostly Cloudy 62 16.7 39 3.9 43 43 E 10 17 29.88 1012 10 16 N/A
11:54 am 11:54 Mostly Cloudy 65 18.3 39 3.9 39 39 VRB 6 9 29.87 1012 10 16 N/A
12:54 pm 12:54 Cloudy 65 18.3 40 4.4 40 40 SSE 8 13 29.85 1011 10 16 N/A
1:54 pm 13:54 Cloudy 65 18.3 38 3.3 37 37 VRB 3 6 29.83 1010 10 16 N/A
1:58 pm 13:58 Cloudy 65 18.3 37 2.8 36 36 SE 8 13 29.83 1010 10 16 N/A
2:54 pm 14:54 Cloudy 61 16.1 43 6.1 52 52 W 10 17 29.83 1010 10 16 N/A
3:54 pm 15:54 Cloudy with Light Rain 56 13.3 45 7.2 67 67 SSW 12 19 29.83 1010 7 11 0.00 0.00
4:15 pm 16:15 Cloudy with Light Rain 53 11.7 46 7.8 77 77 W 15 24 29.84 1011 4 6 0.03 0.76
4:54 pm 16:54 Cloudy with Light Rain 52 11.1 46 7.8 80 80 WSW 8 13 29.86 1011 3 5 0.07 1.78
5:54 pm 17:54 Cloudy with Light Rain 53 11.7 47 8.3 80 80 WNW 8 13 29.85 1011 5 8 0.06 1.52
6:54 pm 18:54 Cloudy with Light Rain 53 11.7 48 8.9 83 83 WNW 7 11 29.85 1011 6 10 0.02 0.51
7:51 pm 19:51 Cloudy with Light Rain 52 11 48 9 88 88 WNW 7 11 29.87 1012 5 8 0.04 1.02
8:54 pm 20:54 Cloudy 51 10.6 48 8.9 89 89 WNW 6 9 29.87 1012 10 16 0.00 0.00
9:54 pm 21:54 Cloudy 51 10.6 48 8.9 89 89 WNW 8 13 29.89 1012 10 16 N/A
10:54 pm 22:54 Cloudy 50 10 47 8.3 89 89 WNW 6 9 29.89 1012 7 11 N/A
11:54 pm 23:54 Mostly Cloudy 48 8.9 46 7.8 93 93 W 5 7 29.89 1012 10 16 N/A

Powered by AerisWeather